Location: Napier
(39.4830°S, 176.9170°E)
Time: 03:22:01
(UTC+12:00)

Lacrosse 5 rocket - Pass Details

Date: 15 August 2020
Orbit: 464 x 632 km, 57.0° (Epoch: 20 September)

Event Time Altitude Azimuth Distance (km) Brightness Sun altitude
Rises 18:32:20 0° 265° (W) 2,534 6.5 -11.7°
Reaches altitude 10° 18:35:33 10° 235° (SW) 1,648 4.5 -12.3°
Maximum altitude 18:37:15 13° 207° (SSW) 1,486 3.8 -12.7°
Drops below altitude 10° 18:38:57 10° 180° (S) 1,649 3.7 -13.0°
Enters shadow 18:40:54 - 158° (SSE) 2,126 4.0 -13.4°
